WA4OPQ-1 Weather Reports


time (UTC)temp
C
wind
direction
speed
KPH
gust
KPH
rain 1hr
cm
rain 24hr
cm
rain mn
cm
humidity
%
barometer
mb
20260902140623 27 316 0.0 1.6 0.00 0.00 0.00 86 1016.9
20260902135648 27 312 0.0 0.0 0.00 0.00 0.00 86 1016.8
20260902134828 27 310 0.0 0.0 0.00 0.00 0.00 86 1016.8
20260902133938 26 312 0.0 0.0 0.00 0.00 0.00 89 1017.3
20260902133058 26 311 0.0 0.0 0.00 0.00 0.00 91 1017.2
20260902132103 25 311 0.0 0.0 0.00 0.00 0.00 91 1017.2
20260902131203 25 311 0.0 0.0 0.00 0.00 0.00 96 1017.0
20260902130213 23 311 0.0 0.0 0.00 0.00 0.00 99 1017.1
20260902125253 23 311 0.0 0.0 0.00 0.00 0.00 99 1017.4
20260902124448 23 311 0.0 0.0 0.00 0.00 0.00 99 1017.2
20260902123508 22 311 0.0 0.0 0.00 0.00 0.00 99 1017.4
20260902122548 22 311 0.0 0.0 0.00 0.00 0.00 99 1017.4
20260902121703 22 311 0.0 0.0 0.00 0.00 0.00 99 1017.5
20260902120813 22 311 0.0 0.0 0.00 0.00 0.00 99 1017.3
20260902115923 22 311 0.0 0.0 0.00 0.00 0.00 99 1017.1
20260902115003 21 311 0.0 0.0 0.00 0.00 0.00 99 1016.9
20260902114128 21 312 0.0 0.0 0.00 0.00 0.00 99 1016.9
20260902113248 21 312 0.0 0.0 0.00 0.00 0.00 99 1016.9
20260902112258 21 312 0.0 0.0 0.00 0.00 0.00 99 1017.0
20260902111348 21 312 0.0 0.0 0.00 0.00 0.00 99 1016.5
20260902110513 21 312 0.0 0.0 0.00 0.00 0.00 99 1016.7
20260902105543 21 312 0.0 0.0 0.00 0.00 0.00 99 1016.7
20260902104740 21 312 0.0 0.0 0.00 0.00 0.00 99 1016.3
20260902103943 21 312 0.0 0.0 0.00 0.00 0.00 99 1016.4
20260902103058 21 312 0.0 0.0 0.00 0.00 0.00 99 1016.4
20260902102243 22 312 0.0 0.0 0.00 0.00 0.00 99 1016.2
20260902101403 22 312 0.0 0.0 0.00 0.00 0.00 99 1016.3
20260902100428 22 312 0.0 0.0 0.00 0.00 0.00 99 1016.1
20260902095608 22 312 0.0 0.0 0.00 0.00 0.00 99 1016.1
20260902094618 22 312 0.0 0.0 0.00 0.00 0.00 99 1015.9
20260902093643 22 312 0.0 0.0 0.00 0.00 0.00 99 1015.9
20260902092823 22 312 0.0 0.0 0.00 0.00 0.00 99 1015.8
20260902091933 22 312 0.0 0.0 0.00 0.00 0.00 99 1015.6
20260902090938 22 312 0.0 0.0 0.00 0.00 0.00 99 1015.4
20260902085943 22 312 0.0 0.0 0.00 0.00 0.00 99 1015.5
20260902085003 22 312 0.0 0.0 0.00 0.00 0.00 99 1015.3
20260902084123 22 312 0.0 0.0 0.00 0.00 0.00 99 1015.5
20260902083158 22 312 0.0 0.0 0.00 0.00 0.00 99 1015.6
20260902082309 22 312 0.0 0.0 0.00 0.00 0.00 99 1015.3
20260902081453 22 312 0.0 0.0 0.00 0.00 0.00 99 1015.3
20260902080513 22 312 0.0 0.0 0.00 0.00 0.00 99 1015.2
20260902075703 22 312 0.0 0.0 0.00 0.00 0.00 99 1015.1
20260902074753 22 312 0.0 0.0 0.00 0.00 0.00 99 1015.1
20260902073913 22 312 0.0 0.0 0.00 0.00 0.00 99 1015.1
20260902073103 23 312 0.0 0.0 0.00 0.00 0.00 99 1015.2
20260902072203 22 312 0.0 0.0 0.00 0.00 0.00 99 1015.2
20260902071308 22 312 0.0 0.0 0.00 0.00 0.00 99 1014.9
20260902070504 22 312 0.0 0.0 0.00 0.00 0.00 99 1015.1
20260902065508 23 312 0.0 0.0 0.00 0.00 0.00 99 1015.2
20260902064558 23 312 0.0 0.0 0.00 0.00 0.00 98 1015.2
20260902063733 23 312 0.0 0.0 0.00 0.00 0.00 98 1015.0
20260902062828 23 312 0.0 0.0 0.00 0.00 0.00 97 1014.9
20260902062008 23 312 0.0 0.0 0.00 0.00 0.00 96 1015.2
20260902061123 23 312 0.0 0.0 0.00 0.00 0.00 96 1015.1
20260902060128 23 312 0.0 0.0 0.00 0.00 0.00 94 1015.1
20260902055253 23 312 0.0 0.0 0.00 0.00 0.00 92 1014.9
20260902054303 24 312 0.0 0.0 0.00 0.00 0.00 92 1014.9
20260902053333 23 312 0.0 0.0 0.00 0.00 0.00 93 1015.2
20260902052529 23 312 0.0 0.0 0.00 0.00 0.00 94 1015.2
20260902051553 23 312 0.0 0.0 0.00 0.00 0.00 92 1014.8
20260902050748 23 312 0.0 0.0 0.00 0.00 0.00 91 1015.1
20260902045913 23 312 0.0 0.0 0.00 0.00 0.00 89 1015.1
20260902044923 24 312 0.0 0.0 0.00 0.00 0.00 87 1014.8
20260902043953 24 312 0.0 0.0 0.00 0.00 0.00 86 1015.0
20260902043113 25 312 0.0 0.0 0.00 0.00 0.00 84 1015.1
20260902042238 25 312 0.0 0.0 0.00 0.00 0.00 84 1014.9
20260902041352 25 312 0.0 0.0 0.00 0.00 0.00 83 1015.2
20260902040410 26 312 0.0 0.0 0.00 0.00 0.00 80 1014.9
20260902035613 26 312 0.0 0.0 0.00 0.00 0.00 77 1015.0
20260902034758 26 312 0.0 0.0 0.00 0.00 0.00 78 1014.9
20260902033838 26 312 0.0 0.0 0.00 0.00 0.00 79 1014.8
20260902032958 26 312 0.0 0.0 0.00 0.00 0.00 79 1014.7
20260902032028 26 312 0.0 0.0 0.00 0.00 0.00 76 1015.0
20260902031135 26 312 0.0 0.0 0.00 0.00 0.00 76 1015.1
20260902030158 26 312 0.0 0.0 0.00 0.00 0.00 76 1014.7
20260902025318 27 312 0.0 0.0 0.00 0.00 0.00 74 1015.1
20260902024318 27 312 0.0 0.0 0.00 0.00 0.00 75 1015.1
20260902023503 27 312 0.0 0.0 0.00 0.00 0.00 73 1015.0
20260902022643 27 312 0.0 0.0 0.00 0.00 0.00 73 1014.9
20260902021656 27 312 0.0 0.0 0.00 0.00 0.00 74 1014.9
20260902020823 27 312 0.0 0.0 0.00 0.00 0.00 74 1014.7
20260902015833 27 312 0.0 0.0 0.00 0.00 0.00 75 1014.7
20260902014943 27 312 0.0 0.0 0.00 0.00 0.00 75 1014.8
20260902014003 27 312 0.0 0.0 0.00 0.00 0.00 72 1014.9
20260902013053 27 312 0.0 0.0 0.00 0.00 0.00 73 1014.4
20260902012208 27 312 0.0 0.0 0.00 0.00 0.00 74 1014.3
20260902011238 27 312 0.0 0.0 0.00 0.00 0.00 76 1014.6
20260902010323 27 312 0.0 0.0 0.00 0.00 0.00 73 1014.2
20260902005333 27 312 0.0 0.0 0.00 0.00 0.00 73 1014.2
20260902004444 27 312 0.0 0.0 0.00 0.00 0.00 73 1014.2
20260902003633 28 312 0.0 0.0 0.00 0.00 0.00 72 1014.2
20260902002700 27 312 0.0 0.0 0.00 0.00 0.00 73 1014.1
20260902001833 28 312 0.0 0.0 0.00 0.00 0.00 74 1014.1
20260902001028 28 312 0.0 0.0 0.00 0.00 0.00 72 1014.1
20260902000215 28 312 0.0 0.0 0.00 0.00 0.00 73 1014.2
20260901235223 28 312 0.0 0.0 0.00 0.00 0.00 74 1014.1
20260901234243 28 312 0.0 0.0 0.00 0.00 0.00 72 1014.3
20260901233428 28 311 0.0 0.0 0.00 0.00 0.00 72 1014.3
20260901232610 29 311 0.0 0.0 0.00 0.00 0.00 72 1014.2
20260901231728 29 311 0.0 0.0 0.00 0.00 0.00 73 1014.4
20260901230753 29 311 0.0 0.0 0.00 0.00 0.00 70 1014.1
20260901225908 30 311 0.0 0.0 0.00 0.00 0.00 69 1014.1
20260901225008 30 311 0.0 0.0 0.00 0.00 0.00 66 1014.1
20260901224123 30 311 0.0 0.0 0.00 0.00 0.00 65 1014.1
20260901223151 31 311 0.0 0.0 0.00 0.00 0.00 64 1013.8
20260901222253 31 311 0.0 0.0 0.00 0.00 0.00 62 1013.8
20260901221358 31 311 0.0 0.0 0.00 0.00 0.00 63 1013.8
20260901220403 31 311 0.0 0.0 0.00 0.00 0.00 62 1013.8
20260901215458 31 311 0.0 0.0 0.00 0.00 0.00 59 1013.8
20260901214538 32 311 0.0 0.0 0.00 0.00 0.00 58 1013.9
20260901213713 32 311 0.0 1.6 0.00 0.00 0.00 58 1013.9
20260901212803 32 311 0.0 1.6 0.00 0.00 0.00 60 1013.9
20260901211828 32 312 0.0 0.0 0.00 0.00 0.00 60 1013.9
20260901210923 32 312 1.6 1.6 0.00 0.00 0.00 55 1013.8
20260901210038 32 311 0.0 0.0 0.00 0.00 0.00 57 1013.9
20260901205118 33 309 1.6 1.6 0.00 0.00 0.00 53 1013.9
20260901204203 34 322 0.0 0.0 0.00 0.00 0.00 54 1013.9
20260901203223 34 321 1.6 1.6 0.00 0.00 0.00 54 1014.3
20260901202223 33 306 0.0 1.6 0.00 0.00 0.00 57 1014.4
20260901201313 33 311 0.0 0.0 0.00 0.00 0.00 60 1014.5
20260901200348 34 302 0.0 0.0 0.00 0.00 0.00 55 1014.1
20260901195353 34 317 0.0 1.6 0.00 0.00 0.00 58 1014.5
20260901194548 35 323 0.0 0.0 0.00 0.00 0.00 60 1014.4
20260901193638 35 305 1.6 1.6 0.00 0.00 0.00 56 1014.4
20260901192818 35 313 0.0 0.0 0.00 0.00 0.00 59 1014.7
20260901191948 35 310 0.0 0.0 0.00 0.00 0.00 60 1014.7
20260901191013 32 308 0.0 0.0 0.00 0.00 0.00 60 1014.8
20260901190208 34 308 0.0 1.6 0.00 0.00 0.00 56 1015.2
20260901185238 33 310 0.0 0.0 0.00 0.00 0.00 60 1015.3
20260901184318 33 327 0.0 0.0 0.00 0.00 0.00 59 1015.3
20260901183433 32 316 0.0 0.0 0.00 0.00 0.00 63 1015.5
20260901182503 33 327 0.0 0.0 0.00 0.00 0.00 66 1015.6
20260901181523 31 315 0.0 0.0 0.00 0.00 0.00 68 1015.9
20260901180648 31 314 1.6 1.6 0.00 0.00 0.00 64 1015.9
20260901175843 33 324 0.0 0.0 0.00 0.00 0.00 57 1015.7
20260901174903 32 317 0.0 0.0 0.00 0.00 0.00 65 1015.8
20260901173953 34 314 3.2 4.8 0.00 0.00 0.00 56 1015.7
20260901173118 33 309 0.0 1.6 0.00 0.00 0.00 66 1015.7
20260901172118 33 316 0.0 1.6 0.00 0.00 0.00 60 1015.9
20260901171208 32 329 0.0 0.0 0.00 0.00 0.00 61 1016.0
20260901170353 33 309 0.0 1.6 0.00 0.00 0.00 67 1016.6
20260901165513 33 308 0.0 1.6 0.00 0.00 0.00 65 1016.5
20260901164623 33 290 3.2 3.2 0.00 0.00 0.00 67 1016.4
20260901163708 33 300 1.6 3.2 0.00 0.00 0.00 63 1016.5
20260901162723 33 298 1.6 3.2 0.00 0.00 0.00 66 1016.9
20260901161848 32 311 0.0 0.0 0.00 0.00 0.00 65 1016.9
20260901160948 33 313 0.0 1.6 0.00 0.00 0.00 65 1016.9
20260901160133 32 316 0.0 1.6 0.00 0.00 0.00 69 1017.0
20260901155223 32 307 0.0 0.0 0.00 0.00 0.00 70 1017.0
20260901154308 31 293 3.2 3.2 0.00 0.00 0.00 70 1017.3
20260901153438 31 287 3.2 3.2 0.00 0.00 0.00 71 1016.8
20260901152538 31 305 1.6 1.6 0.00 0.00 0.00 76 1017.1
20260901151638 30 308 0.0 1.6 0.00 0.00 0.00 72 1017.4
20260901150758 30 292 3.2 4.8 0.00 0.00 0.00 73 1017.2
20260901145943 30 270 3.2 3.2 0.00 0.00 0.00 74 1017.0
20260901145043 29 306 0.0 0.0 0.00 0.00 0.00 77 1017.2
20260901144228 29 306 0.0 0.0 0.00 0.00 0.00 78 1017.2
20260901143308 28 317 0.0 1.6 0.00 0.00 0.00 78 1017.4
20260901142428 28 312 0.0 0.0 0.00 0.00 0.00 79 1017.2
20260901141458 27 308 0.0 0.0 0.00 0.00 0.00 81 1017.3